New Bern, NC

2:45 PM EST on February 22, 2018 (GMT -0500)
Craven County Regional

Weather History for KEWN - October, 2012

Change the Weather History Date:

Monday, October 8, 2012

  Actual Average Record
Temperature  
Mean Temperature 61 °F 67 °F  
Max Temperature 66 °F 77 °F 90 °F (1962)
Min Temperature 55 °F 57 °F 41 °F (1966)
Degree Days  
Heating Degree Days 4 2  
Month to date heating degree days 4 12  
Since 1 July heating degree days 5 19  
Cooling Degree Days 0 4  
Month to date cooling degree days 67 36  
Year to date cooling degree days 2001 1839  
Growing Degree Days 10 (Base 50)    
Moisture  
Dew Point 56 °F    
Average Humidity 87    
Maximum Humidity 100    
Minimum Humidity 73    
Precipitation  
Precipitation 0.12 in 0.12 in 6.52 in (2005)
Month to date precipitation 0.95 1.01  
Year to date precipitation 43.74 43.70  
Snow  
Snow 0.00 in - - ()
Month to date snowfall 0.0  
Since 1 July snowfall 0.0  
Snow Depth 0.00 in    
Sea Level Pressure  
Sea Level Pressure 30.12 in    
Wind  
Wind Speed 9 mph (NNE)    
Max Wind Speed 14 mph    
Max Gust Speed 18 mph    
Visibility 10 miles    
Events Rain    
T = Trace of Precipitation, MM = Missing Value Source: NWS Daily Summary

Daily Weather History Graph

Daily Weather History Graph

Search for Another Location

Airport or City:

Trip Planner

Search our weather history database for the weather conditions in past years. The results will help you decide how hot, cold, wet, or windy it might be!

Date:

Astronomy

Oct. 08, 2012 Rise Set
Actual Time 7:08 AM EDT 6:41 PM EDT
Civil Twilight 6:43 AM EDT 7:07 PM EDT
Nautical Twilight 6:14 AM EDT 7:36 PM EDT
Astronomical Twilight 5:44 AM EDT 8:05 PM EDT
Moon 12:01 AM EDT (10/8) 2:15 PM EDT (10/8)
Length of Visible Light 12h 23m
Length of Day
11h 32m
Waning Gibbous, 46% of the Moon is Illuminated
Oct 8
Waning Gibbous
Oct 15
New
Oct 21
First Quarter
Oct 29
Full
Nov 6
Last Quarter

Hourly Weather History & Observations

Time (EDT) Temp. Dew Point Humidity Pressure Visibility Wind Dir Wind Speed Gust Speed Precip Events Conditions
12:22 AM 57.2 °F 53.6 °F 88% 30.12 in 10.0 mi North 10.4 mph - N/A   Overcast
12:54 AM 57.0 °F 53.1 °F 87% 30.13 in 10.0 mi NNE 5.8 mph 16.1 mph N/A   Overcast
1:54 AM 57.0 °F 53.1 °F 87% 30.14 in 10.0 mi NNE 8.1 mph - N/A   Overcast
2:54 AM 55.9 °F 52.0 °F 87% 30.12 in 10.0 mi NNE 13.8 mph - N/A   Overcast
3:54 AM 55.0 °F 52.0 °F 89% 30.13 in 10.0 mi NNE 9.2 mph - N/A   Mostly Cloudy
4:01 AM 55.4 °F 51.8 °F 88% 30.13 in 10.0 mi North 9.2 mph - N/A   Mostly Cloudy
4:13 AM 55.4 °F 51.8 °F 88% 30.13 in 10.0 mi NNE 8.1 mph - N/A   Scattered Clouds
4:28 AM 55.4 °F 51.8 °F 88% 30.13 in 10.0 mi NE 9.2 mph - N/A   Mostly Cloudy
4:47 AM 55.4 °F 51.8 °F 88% 30.13 in 10.0 mi NE 11.5 mph - N/A   Overcast
4:54 AM 55.0 °F 52.0 °F 89% 30.13 in 10.0 mi NE 8.1 mph - N/A   Mostly Cloudy
5:26 AM 55.4 °F 51.8 °F 88% 30.13 in 10.0 mi NNE 6.9 mph - N/A   Overcast
5:54 AM 55.9 °F 52.0 °F 87% 30.14 in 10.0 mi North 10.4 mph - N/A   Overcast
6:54 AM 55.9 °F 52.0 °F 87% 30.16 in 10.0 mi NE 8.1 mph - N/A   Overcast
7:54 AM 55.9 °F 53.1 °F 90% 30.18 in 10.0 mi NE 8.1 mph - N/A   Overcast
8:54 AM 57.0 °F 54.0 °F 89% 30.20 in 10.0 mi NNE 6.9 mph - N/A   Overcast
9:54 AM 59.0 °F 55.0 °F 87% 30.18 in 10.0 mi NNE 8.1 mph - N/A   Overcast
10:12 AM 60.8 °F 55.4 °F 82% 30.19 in 10.0 mi NNE 9.2 mph - N/A   Overcast
10:54 AM 61.0 °F 55.9 °F 83% 30.17 in 10.0 mi NNE 8.1 mph - N/A   Overcast
11:54 AM 63.0 °F 55.9 °F 78% 30.16 in 10.0 mi NNE 10.4 mph - N/A   Overcast
12:54 PM 64.9 °F 57.0 °F 75% 30.13 in 10.0 mi NNE 9.2 mph - N/A   Overcast
1:54 PM 66.0 °F 57.9 °F 75% 30.10 in 10.0 mi NE 10.4 mph - 0.00 in   Overcast
2:54 PM 66.0 °F 59.0 °F 78% 30.08 in 10.0 mi NNE 6.9 mph - N/A   Overcast
3:52 PM 66.2 °F 60.8 °F 83% 30.07 in 10.0 mi NNE 6.9 mph - N/A   Overcast
3:54 PM 66.0 °F 60.1 °F 81% 30.08 in 10.0 mi NNE 6.9 mph - N/A   Overcast
4:54 PM 64.0 °F 60.1 °F 87% 30.06 in 10.0 mi North 8.1 mph - N/A   Overcast
5:34 PM 62.6 °F 59.0 °F 88% 30.09 in 8.0 mi NNW 8.1 mph - 0.00 in Rain Light Rain
5:54 PM 61.0 °F 59.0 °F 93% 30.09 in 2.5 mi North 10.4 mph - 0.00 in Rain Light Rain
6:01 PM 60.8 °F 59.0 °F 94% 30.08 in 4.0 mi North 12.7 mph - 0.00 in Rain Light Rain
6:54 PM 59.0 °F 57.9 °F 96% 30.07 in 9.0 mi North 9.2 mph - 0.00 in   Overcast
7:13 PM 57.2 °F 57.2 °F 100% 30.07 in 9.0 mi North 9.2 mph - N/A   Overcast
7:54 PM 57.9 °F 57.0 °F 97% 30.10 in 10.0 mi North 12.7 mph - N/A   Overcast
8:21 PM 57.2 °F 55.4 °F 94% 30.11 in 10.0 mi North 9.2 mph - N/A   Overcast
8:54 PM 57.9 °F 55.9 °F 93% 30.09 in 10.0 mi NNE 10.4 mph - 0.01 in Rain Light Rain
9:23 PM 59.0 °F 57.2 °F 94% 30.08 in 9.0 mi ENE 8.1 mph - 0.05 in Rain Light Rain
9:54 PM 60.1 °F 57.9 °F 93% 30.08 in 8.0 mi ENE 8.1 mph - 0.11 in Rain Rain
10:07 PM 60.8 °F 57.2 °F 88% 30.10 in 10.0 mi NW 6.9 mph - 0.00 in Rain Light Rain
10:54 PM 60.1 °F 57.9 °F 93% 30.09 in 10.0 mi NNW 6.9 mph - 0.00 in   Overcast
11:54 PM 60.1 °F 57.9 °F 93% 30.08 in 10.0 mi North 9.2 mph - N/A   Overcast